Weather History for Hastings, NE

Change the Weather History Date:

Saturday, December 6, 2014

  Actual Average Record
Temperature  
Mean Temperature 32 °F 30 °F  
Max Temperature 43 °F 39 °F 79 °F (1939)
Min Temperature 21 °F 20 °F -11 °F (1950)
Degree Days  
Heating Degree Days 33 35  
Month to date heating degree days 199 206  
Since 1 July heating degree days 1537 1487  
Cooling Degree Days 0 0  
Month to date cooling degree days 0 0  
Year to date cooling degree days 1018 1077  
Moisture  
Dew Point 23 °F    
Average Humidity 68    
Maximum Humidity 92    
Minimum Humidity 43    
Precipitation  
Precipitation 0.00 in 0.04 in 1.53 in (1913)
Month to date precipitation 0.00 0.23  
Year to date precipitation 28.67 26.73  
Snow  
Snow 0.00 in 0.20 in 4.50 in (1994)
Month to date snowfall 0.0 1.0  
Since 1 July snowfall 1.7 4.8  
Snow Depth 0.00 in    
Sea Level Pressure  
Sea Level Pressure 30.50 in    
Wind  
Wind Speed 7 mph (ESE)    
Max Wind Speed 15 mph    
Max Gust Speed 19 mph    
Visibility 8 miles    
Events Fog    
T = Trace of Precipitation, MM = Missing Value Source: NWS Daily Summary

Daily Weather History Graph

Daily Weather History Graph

Search for Another Location

Airport:

Trip Planner

Search our weather history database for the weather conditions in past years. The results will help you decide how hot, cold, wet, or windy it might be!

Date:

Astronomy

Dec. 06, 2014 Rise Set
Actual Time 7:42 AM CST 5:06 PM CST
Civil Twilight 7:12 AM CST 5:37 PM CST
Nautical Twilight 6:38 AM CST 6:11 PM CST
Astronomical Twilight 6:05 AM CST 6:44 PM CST
Moon 5:44 PM CST (12/6) 7:34 AM CST (12/6)
Length of Visible Light 10h 24m
Length of Day
9h 23m
Full, 100% of the Moon is Illuminated
Dec 6
Full
Dec 14
Last Quarter
Dec 21
New
Dec 28
First Quarter
Jan 4
Full

Hourly Weather History & Observations

Time (CST) Temp. Windchill Dew Point Humidity Pressure Visibility Wind Dir Wind Speed Gust Speed Precip Events Conditions
12:53 AM 28.0 °F 20.8 °F 19.9 °F 72% 30.43 in 10.0 mi North 6.9 mph - N/A   Clear
1:53 AM 27.0 °F 18.7 °F 19.9 °F 75% 30.45 in 10.0 mi NNW 8.1 mph - N/A   Clear
2:53 AM 26.1 °F 17.6 °F 19.0 °F 75% 30.47 in 10.0 mi North 8.1 mph - N/A   Clear
3:53 AM 24.1 °F 17.0 °F 18.0 °F 77% 30.49 in 10.0 mi NNW 5.8 mph - N/A   Clear
4:53 AM 23.0 °F 14.7 °F 18.0 °F 81% 30.53 in 10.0 mi NNW 6.9 mph - N/A   Clear
5:53 AM 21.2 °F 11.7 °F 17.6 °F 86% 30.47 in 10.0 mi North 8.1 mph - N/A   Clear
6:53 AM 21.9 °F 11.7 °F 17.1 °F 82% 30.56 in 10.0 mi North 9.2 mph - N/A   Clear
7:53 AM 21.0 °F 13.4 °F 17.1 °F 85% 30.58 in 10.0 mi North 5.8 mph - N/A   Clear
8:53 AM 25.0 °F 17.1 °F 19.0 °F 78% 30.60 in 10.0 mi NNE 6.9 mph - N/A   Clear
9:53 AM 30.0 °F 26.5 °F 21.0 °F 69% 30.61 in 10.0 mi Variable 3.5 mph - N/A   Clear
10:53 AM 34.0 °F 28.8 °F 21.9 °F 61% 30.60 in 10.0 mi NNE 5.8 mph - N/A   Clear
11:53 AM 37.9 °F 34.4 °F 23.0 °F 55% 30.58 in 10.0 mi NNE 4.6 mph - N/A   Clear
12:53 PM 41.0 °F 39.0 °F 23.0 °F 49% 30.55 in 10.0 mi ENE 3.5 mph - N/A   Clear
1:53 PM 42.1 °F 39.2 °F 23.0 °F 47% 30.53 in 10.0 mi SE 4.6 mph - N/A   Clear
2:53 PM 43.0 °F 38.8 °F 21.9 °F 43% 30.52 in 10.0 mi SE 6.9 mph - N/A   Clear
3:53 PM 42.1 °F 38.4 °F 23.0 °F 47% 30.53 in 10.0 mi SE 5.8 mph - N/A   Clear
4:53 PM 39.0 °F 33.4 °F 23.0 °F 53% 30.53 in 10.0 mi SE 8.1 mph - N/A   Clear
5:53 PM 37.0 °F 30.4 °F 23.0 °F 57% 30.52 in 10.0 mi SE 9.2 mph - N/A   Clear
6:53 PM 33.1 °F 24.4 °F 23.0 °F 66% 30.52 in 9.0 mi SSE 11.5 mph - N/A   Clear
7:53 PM 30.9 °F 22.2 °F 24.1 °F 76% 30.51 in 7.0 mi SE 10.4 mph - N/A   Clear
8:53 PM 30.0 °F 24.1 °F 25.0 °F 82% 30.51 in 5.0 mi South 5.8 mph - N/A   Haze
9:17 PM 28.9 °F 21.1 °F 25.0 °F 85% 30.42 in 4.0 mi SSE 8.1 mph - N/A   Scattered Clouds
9:26 PM 28.9 °F 21.1 °F 25.0 °F 85% 30.42 in 4.0 mi SSE 8.1 mph - N/A   Mostly Cloudy
9:53 PM 28.9 °F 18.6 °F 27.0 °F 92% 30.48 in 3.0 mi SSE 12.7 mph - N/A   Overcast
10:53 PM 30.0 °F 20.5 °F 28.0 °F 92% 30.46 in 3.0 mi South 11.5 mph - N/A   Overcast
11:04 PM 30.2 °F 20.8 °F 28.4 °F 93% 30.39 in 2.5 mi SSE 11.5 mph - N/A   Overcast
11:20 PM 30.0 °F 20.5 °F 28.9 °F 96% 30.39 in 1.5 mi South 11.5 mph - N/A   Overcast
11:41 PM 30.0 °F 20.5 °F 28.9 °F 96% 30.39 in 0.5 mi SSE 11.5 mph 19.6 mph N/A Fog Light Freezing Fog
11:53 PM 30.9 °F 23.5 °F 30.0 °F 96% 30.46 in 0.5 mi South 8.1 mph - N/A Fog Light Freezing Fog